Current weather by "City, St" or "zip code"  
 
Advertise Here

Current Conditions: Alamogordo-White, NM

Fair


99.0 F

Last Updated on Aug 4 2020, 4:55 pm MDT
Humidity: 14%
Wind Speed: W 5.8 mph
Barometer 30.03 in
Dewpoint: 41.0 F
Visibility: 10.00 mi
Precip: --
Heat Index: 94 F
Wind Chill: NA
Current conditions at:

Alamogordo-White, NM (KALM)

Lat: 32.83512 Lon: 105.99408

Local Radar Image active severe weather and emergency alerts image image weather storm and storm spotter reports image weather observation monitoring service image
Local
Radar
Active
Alerts
Storm Reports Obs
Monitoring

Sign-up For Email & Text Message Weather Alert Notification Services


Advertise Here

Observation History for Alamogordo-White, NM


Time Wind
(mph)
Vis
(mi)
Weather Precip (in) Temperature (F) Relative
Humidity
Wind
Chill
(F)
Heat
Index
(F)
Pressure
Air Dwpt altimeter
(in)
sea level
(mb)
Rmks
4:55 pm MDT W 5.8 10.00 Fair -- 99.0 41.0 14% NA 94 30.03 M
3:55 pm MDT N 4.6 10.00 Fair -- 99.0 42.8 15% NA 95 30.05 M
2:55 pm MDT N 9.2 G 16.1 10.00 Fair -- 97.0 44.6 17% NA 93 30.08 M
1:55 pm MDT NW 4.6 10.00 Fair -- 95.0 44.6 18% NA 91 30.11 M
12:55 pm MDT NW 6.9 10.00 Fair -- 93.0 46.4 20% NA 89 30.13 M
11:55 am MDT W 3.5 10.00 Fair -- 91.0 48.2 23% NA 88 30.15 M
10:55 am MDT NW 8.1 10.00 Fair -- 88.0 50.0 27% NA 85 30.15 M
9:55 am MDT NW 5.8 10.00 Fair -- 84.0 51.8 33% NA 82 30.16 M
8:55 am MDT W 5.8 10.00 Fair -- 81.0 53.6 39% NA 81 30.16 M
7:55 am MDT N 0.0 10.00 Fair -- 73.0 55.4 53% NA NA 30.16 M
6:55 am MDT E 3.5 10.00 Fair -- 70.0 53.6 57% NA NA 30.14 M
5:55 am MDT E 5.8 10.00 Fair -- 72.0 53.6 53% NA NA 30.14 M
4:55 am MDT E 6.9 10.00 Fair -- 72.0 55.4 57% NA NA 30.14 M
3:55 am MDT E 6.9 10.00 Fair -- 73.0 55.4 53% NA NA 30.13 M
2:55 am MDT N 0.0 10.00 Fair -- 73.0 55.4 53% NA NA 30.13 M
1:55 am MDT W 6.9 10.00 Fair -- 81.0 53.6 39% NA 81 30.12 M
12:55 am MDT NE 3.5 10.00 Fair -- 82.0 50.0 32% NA 81 30.12 M
11:55 pm MDT N 17.3 G 21.9 10.00 Fair -- 81.0 50.0 34% NA 80 30.13 M
10:55 pm MDT NE 5.8 10.00 Fair -- 82.0 53.6 37% NA 81 30.12 M
9:55 pm MDT NE 8.1 10.00 Partly Cloudy -- 82.0 55.4 40% NA 81 30.11 M
8:55 pm MDT N 0.0 10.00 A Few Clouds -- 82.0 55.4 40% NA 81 30.08 M
7:55 pm MDT N 0.0 10.00 Fair -- 86.0 55.4 35% NA 85 30.07 M
6:55 pm MDT N 0.0 10.00 Fair -- 93.0 48.2 21% NA 90 30.06 M
5:55 pm MDT N 0.0 10.00 Fair -- 93.0 46.4 20% NA 89 30.06 M

Regional Weather Observation


Alamogordo-White, NM (KALM)

Fair
99.0 F

Sierra Blanca Regional Airport, NM (KSRR)

Fair
86.0 F

Las Cruces, Las Cruces International Airport, NM (KLRU)

Fair
100.0 F

Truth Or Consequences, Truth Or Consequences Municipal Airport, NM (KTCS)

Overcast
95.0 F

Socorro Municipal Airport, NM (KONM)

Fair
95.0 F

Corona/Lincoln, NM (K4CR)

Clear
52.0 F